Regional Weather Roundup
Issued by NWS

Home | Current Version | Previous Version | Graphics & Text | Print | Product List | Glossary On
Versions: 1 2 3 4 5 6 7 8 9 10 11 12 13 14 15 16 17 18 19 20 21 22 23 24 25 26 27 28 29 30 31 32 33 34 35 36 37 38 39 40 41 42 43 44 45 46 47 48 49 50
000
ASUS43 KOAX 210410
RWRNE

WEATHER ROUNDUP FOR NEBRASKA
NATIONAL WEATHER SERVICE OMAHA NE
1000 PM CST MON NOV 20 2017

NOTES: SATELLITE DATA IS BEING USED TO AUGMENT CLOUD COVER ABOVE
       12000 FEET.
       "FAIR" INDICATES FEW OR NO CLOUDS BELOW 12,000 FEET WITH NO
       SIGNIFICANT WEATHER AND/OR OBSTRUCTIONS TO VISIBILITY.


NEZ001>004-019>022-054>056-210500-
NEBRASKA PANHANDLE

CITY           SKY/WX    TMP DP  RH WIND       PRES   REMARKS
SCOTTSBLUFF    MOCLDY    51  20  29 W10       29.79F
ALLIANCE       PTCLDY    40  21  46 W9        29.78S WCI  34
CHADRON        MOCLDY    34  23  64 CALM      29.76S
GORDON         FAIR      38  24  56 W6        29.77R WCI  33
KIMBALL        CLOUDY    55  12  18 W24G31    29.84S
SIDNEY         CLOUDY    49  19  30 NW13      29.82S
$$

NEZ057>060-069>072-079>082-210500-
SOUTHWEST NEBRASKA

CITY           SKY/WX    TMP DP  RH WIND       PRES   REMARKS
NORTH PLATTE   CLOUDY    39  26  59 N3        29.77R
IMPERIAL       CLOUDY    51  20  29 N9        29.78S
LEXINGTON      CLOUDY    43  27  51 W8        29.76R
MCCOOK         CLOUDY    48  26  42 NW10      29.77R
OGALLALA       CLOUDY    51  20  30 NW14      29.78R
$$

NEZ005>010-023>029-035>040-094-210500-
NORTH CENTRAL NEBRASKA

CITY           SKY/WX    TMP DP  RH WIND       PRES   REMARKS
VALENTINE      CLOUDY    33  21  61 W6        29.74R WCI  28
AINSWORTH      CLOUDY    35  22  59 W6        29.74R WCI  30
BROKEN BOW     CLOUDY    39  22  50 CALM      29.74R
O`NEILL        CLOUDY    42  23  46 NW7       29.73R
ORD            CLOUDY    34  23  64 N5        29.72R WCI  30
THEDFORD       CLEAR     35  23  60 CALM      29.77R
$$

NEZ041-046>049-061>064-073>077-083>087-210500-
SOUTH CENTRAL NEBRASKA

CITY           SKY/WX    TMP DP  RH WIND       PRES   REMARKS
GRAND ISLAND   CLOUDY    38  28  67 W5        29.72R WCI  34
AURORA         CLOUDY    40  24  51 NW7       29.71R
HASTINGS       CLOUDY    41  24  51 NW5       29.72R
HEBRON         CLOUDY    43  28  56 CALM      29.70R
HOLDREGE       CLOUDY    51  26  38 NW10      29.73R
KEARNEY        CLOUDY    46  25  43 NW9       29.73R
YORK           CLOUDY    37  25  60 NW3       29.71R
$$

NEZ011>018-030>034-042>045-210500-
NORTHEAST NEBRASKA

CITY           SKY/WX    TMP DP  RH WIND       PRES   REMARKS
NORFOLK        CLOUDY    38  24  57 W5        29.69R WCI  34
ALBION         CLOUDY    35  24  64 NW7       29.71R WCI  29
BLAIR          CLOUDY    45  30  55 W8        29.67R
COLUMBUS       CLOUDY    32  24  72 CALM      29.71R
FREMONT        CLOUDY    38  29  72 W9        29.69R WCI  31
TEKAMAH        CLOUDY    39  26  59 CALM      29.67R
WAYNE          CLOUDY    34  25  70 S3        29.68R
$$

NEZ050>053-065>068-078-088>093-210500-
SOUTHEAST NEBRASKA

CITY           SKY/WX    TMP DP  RH WIND       PRES   REMARKS
LINCOLN        CLOUDY    41  27  57 S3        29.70R
OMAHA EPPLEY   CLOUDY    43  28  55 CALM      29.67R
BEATRICE       CLOUDY    43  27  53 SW3       29.69S
FALLS CITY     CLEAR     48  28  46 SW10      29.69R
NEBRASKA CITY  CLEAR     42  29  60 SW10      29.68R
PLATTSMOUTH    PTCLDY    46  29  52 W7        29.67S
$$

NEZ044-045-051>053-067-210500-
OMAHA AREA

CITY           SKY/WX    TMP DP  RH WIND       PRES   REMARKS
OMAHA EPPLEY   CLOUDY    43  28  55 CALM      29.67R
BLAIR          CLOUDY    45  30  55 W8        29.67R
FREMONT        CLOUDY    38  29  72 W9        29.69R WCI  31
MILLARD        CLOUDY    45  30  55 CALM      29.68R
OFFUTT AFB     CLOUDY    35  27  73 CALM      29.67R
PLATTSMOUTH    PTCLDY    46  29  52 W7        29.67S
WAHOO          FAIR      42  28  58 W3        29.68R
$$



USA.gov is the U.S. government's official web portal to all federal, state and local government web resources and services.